{"data":{"norad_id":58455,"epoch":"2026-05-24T22:42:42.280416Z","epoch_age_seconds":73008,"freshness":"FRESH","line1":"1 58455U 23183U   26144.94632269  .00002871  00000+0  11380-3 0  9995","line2":"2 58455  43.0033 331.2262 0001297 275.9074  84.1630 15.27580670138391","mean_motion":15.2758067,"eccentricity":0.0001297,"inclination_deg":43.0033,"raan_deg":331.2262,"arg_perigee_deg":275.9074,"mean_anomaly_deg":84.163,"bstar":0.0001138,"rev_number":13839,"period_min":94.266707368063,"perigee_km":482.1571942429,"apogee_km":483.9369853958,"semimajor_km":6861.1840898194,"source":"CELESTRAK","updated_at":"2026-05-25T13:38:18.625722Z"}}